Time,TemperatureF,DewpointF,PressureIn,WindDirection,WindDirectionDegrees,WindSpeedMPH,WindSpeedGustMPH,Humidity,HourlyPrecipIn,Conditions,Clouds,dailyrainin,SoftwareType,DateUTC
2013-03-20 00:00:00,30.0,25.2,29.87,SW,226,0.0,0.0,82,0.00,,SKC,0.10,VWS V13.01,2013-03-20 04:00:00,
2013-03-20 00:01:00,30.0,25.2,29.87,SW,226,0.0,0.0,82,0.00,,SKC,0.00,VWS V13.01,2013-03-20 04:01:00,
2013-03-20 00:06:00,30.0,25.2,29.87,SSE,158,0.0,0.0,82,0.00,,SKC,0.00,VWS V13.01,2013-03-20 04:06:00,
2013-03-20 00:11:00,30.0,25.2,29.86,SE,136,0.0,0.0,82,0.00,,SKC,0.00,VWS V13.01,2013-03-20 04:11:00,
2013-03-20 00:16:00,30.0,25.2,29.86,SE,136,0.0,0.0,82,0.00,,SKC,0.00,VWS V13.01,2013-03-20 04:16:00,
2013-03-20 00:21:00,29.8,25.0,29.86,WSW,248,0.0,0.0,82,0.00,,SKC,0.00,VWS V13.01,2013-03-20 04:21:00,
2013-03-20 00:26:00,29.8,25.0,29.86,SSE,158,0.0,0.0,82,0.00,,SKC,0.00,VWS V13.01,2013-03-20 04:26:00,
2013-03-20 00:31:00,29.6,24.8,29.86,WSW,248,0.0,0.0,82,0.00,,SKC,0.00,VWS V13.01,2013-03-20 04:31:00,
2013-03-20 00:36:00,29.4,24.6,29.85,WSW,248,0.0,0.0,82,0.00,,SKC,0.00,VWS V13.01,2013-03-20 04:36:00,
2013-03-20 00:41:00,29.3,24.5,29.85,SW,226,0.0,0.0,82,0.00,,SKC,0.00,VWS V13.01,2013-03-20 04:41:00,
2013-03-20 00:46:00,29.3,24.5,29.85,SW,226,0.0,0.0,82,0.00,,SKC,0.00,VWS V13.01,2013-03-20 04:46:00,
2013-03-20 00:51:00,28.9,24.1,29.85,SW,226,0.0,0.0,82,0.00,,SKC,0.00,VWS V13.01,2013-03-20 04:51:00,
2013-03-20 00:56:00,28.7,23.9,29.85,SW,226,0.0,0.0,82,0.00,,SKC,0.00,VWS V13.01,2013-03-20 04:56:00,
2013-03-20 01:01:00,28.5,23.7,29.85,SW,226,0.0,0.0,82,0.00,,SKC,0.00,VWS V13.01,2013-03-20 05:01:00,
2013-03-20 01:06:00,28.0,23.2,29.85,SW,226,0.0,0.0,82,0.00,,SKC,0.00,VWS V13.01,2013-03-20 05:06:00,
2013-03-20 01:11:00,27.6,22.8,29.85,SW,226,0.0,0.0,82,0.00,,SKC,0.00,VWS V13.01,2013-03-20 05:11:00,
2013-03-20 01:16:00,27.3,22.5,29.85,SW,226,0.0,0.0,82,0.00,,SKC,0.00,VWS V13.01,2013-03-20 05:16:00,
2013-03-20 01:22:00,26.7,22.0,29.85,SW,226,0.0,0.0,82,0.00,,SKC,0.00,VWS V13.01,2013-03-20 05:22:00,
2013-03-20 01:27:00,26.6,21.9,29.85,WSW,248,0.0,0.0,82,0.00,,SKC,0.00,VWS V13.01,2013-03-20 05:27:00,
2013-03-20 01:32:00,26.4,21.7,29.85,WSW,248,0.0,0.0,82,0.00,,SKC,0.00,VWS V13.01,2013-03-20 05:32:00,
2013-03-20 01:37:00,26.2,21.5,29.85,WSW,248,0.0,0.0,82,0.00,,SKC,0.00,VWS V13.01,2013-03-20 05:37:00,
2013-03-20 01:42:00,25.8,21.1,29.85,WSW,248,0.0,0.0,82,0.00,,SKC,0.00,VWS V13.01,2013-03-20 05:42:00,
2013-03-20 01:47:00,25.7,21.0,29.85,South,181,0.0,0.0,82,0.00,,SKC,0.00,VWS V13.01,2013-03-20 05:47:00,
2013-03-20 01:52:00,25.7,21.0,29.86,SW,226,0.0,0.0,82,0.00,,SKC,0.00,VWS V13.01,2013-03-20 05:52:00,
2013-03-20 01:57:00,25.5,20.8,29.85,WSW,248,0.0,0.0,82,0.00,,SKC,0.00,VWS V13.01,2013-03-20 05:57:00,
2013-03-20 02:02:00,25.3,20.6,29.85,WSW,248,0.0,0.0,82,0.00,,SKC,0.00,VWS V13.01,2013-03-20 06:02:00,
2013-03-20 02:07:00,25.1,20.4,29.85,WSW,248,0.0,0.0,82,0.00,,SKC,0.00,VWS V13.01,2013-03-20 06:07:00,
2013-03-20 02:12:00,24.6,19.9,29.85,WSW,248,0.0,0.0,82,0.00,,SKC,0.00,VWS V13.01,2013-03-20 06:12:00,
2013-03-20 02:17:00,24.6,19.9,29.85,WSW,248,0.0,0.0,82,0.00,,SKC,0.00,VWS V13.01,2013-03-20 06:17:00,
2013-03-20 02:22:00,24.6,19.9,29.85,WSW,248,0.0,0.0,82,0.00,,SKC,0.00,VWS V13.01,2013-03-20 06:22:00,
2013-03-20 02:27:00,24.4,20.0,29.85,WSW,248,0.0,0.0,83,0.00,,SKC,0.00,VWS V13.01,2013-03-20 06:27:00,
2013-03-20 02:32:00,24.6,20.2,29.85,WSW,248,0.0,0.0,83,0.00,,SKC,0.00,VWS V13.01,2013-03-20 06:32:00,
2013-03-20 02:37:00,24.6,20.2,29.84,WSW,248,0.0,0.0,83,0.00,,SKC,0.00,VWS V13.01,2013-03-20 06:37:00,
2013-03-20 02:42:00,24.6,20.2,29.84,WSW,248,0.0,0.0,83,0.00,,SKC,0.00,VWS V13.01,2013-03-20 06:42:00,
2013-03-20 02:47:00,24.6,20.2,29.84,WSW,248,0.0,0.0,83,0.00,,SKC,0.00,VWS V13.01,2013-03-20 06:47:00,
2013-03-20 02:52:00,24.6,20.2,29.85,WSW,248,0.0,0.0,83,0.00,,SKC,0.00,VWS V13.01,2013-03-20 06:52:00,
2013-03-20 02:57:00,24.6,20.2,29.84,WSW,248,0.0,0.0,83,0.00,,SKC,0.00,VWS V13.01,2013-03-20 06:57:00,
2013-03-20 03:02:00,24.6,20.2,29.85,WSW,248,0.0,0.0,83,0.00,,SKC,0.00,VWS V13.01,2013-03-20 07:02:00,
2013-03-20 03:07:00,24.8,20.4,29.85,WSW,248,0.0,0.0,83,0.00,,SKC,0.00,VWS V13.01,2013-03-20 07:07:00,
2013-03-20 03:12:00,24.9,20.2,29.84,WSW,248,0.0,0.0,82,0.00,,SKC,0.00,VWS V13.01,2013-03-20 07:12:00,
2013-03-20 03:17:00,24.9,20.5,29.84,WSW,248,0.0,0.0,83,0.00,,SKC,0.00,VWS V13.01,2013-03-20 07:17:00,
2013-03-20 03:22:00,24.9,20.5,29.84,WSW,248,0.0,0.0,83,0.00,,SKC,0.00,VWS V13.01,2013-03-20 07:22:00,
2013-03-20 03:27:00,25.3,20.9,29.85,WSW,248,0.0,0.0,83,0.00,,SKC,0.00,VWS V13.01,2013-03-20 07:27:00,
2013-03-20 03:32:00,25.5,21.1,29.85,WSW,248,0.0,0.0,83,0.00,,SKC,0.00,VWS V13.01,2013-03-20 07:32:00,
2013-03-20 03:37:00,25.7,21.3,29.84,WSW,248,0.0,0.0,83,0.00,,SKC,0.00,VWS V13.01,2013-03-20 07:37:00,
2013-03-20 03:42:00,25.8,21.4,29.84,WSW,248,0.0,0.0,83,0.00,,SKC,0.00,VWS V13.01,2013-03-20 07:42:00,
2013-03-20 03:47:00,26.0,21.6,29.84,WSW,248,0.0,0.0,83,0.00,,SKC,0.00,VWS V13.01,2013-03-20 07:47:00,
2013-03-20 03:53:00,26.2,21.8,29.83,WSW,248,0.0,0.0,83,0.00,,SKC,0.00,VWS V13.01,2013-03-20 07:53:00,
2013-03-20 03:58:00,26.4,22.0,29.84,WSW,248,0.0,0.0,83,0.00,,SKC,0.00,VWS V13.01,2013-03-20 07:58:00,
2013-03-20 04:03:00,26.6,22.1,29.84,WSW,248,0.0,0.0,83,0.00,,SKC,0.00,VWS V13.01,2013-03-20 08:03:00,
2013-03-20 04:08:00,26.7,22.2,29.84,WSW,248,0.0,0.0,83,0.00,,SKC,0.00,VWS V13.01,2013-03-20 08:08:00,
2013-03-20 04:13:00,26.7,22.2,29.84,WSW,248,0.0,0.0,83,0.00,,SKC,0.00,VWS V13.01,2013-03-20 08:13:00,
2013-03-20 04:18:00,26.7,22.2,29.84,WSW,248,0.0,0.0,83,0.00,,SKC,0.00,VWS V13.01,2013-03-20 08:18:00,
2013-03-20 04:23:00,26.6,22.1,29.84,WSW,248,0.0,0.0,83,0.00,,SKC,0.00,VWS V13.01,2013-03-20 08:23:00,
2013-03-20 04:28:00,26.6,22.1,29.84,WSW,248,0.0,0.0,83,0.00,,SKC,0.00,VWS V13.01,2013-03-20 08:28:00,
2013-03-20 04:33:00,26.6,22.1,29.84,WSW,248,0.0,0.0,83,0.00,,SKC,0.00,VWS V13.01,2013-03-20 08:33:00,
2013-03-20 04:38:00,26.4,22.2,29.85,WSW,248,0.0,0.0,84,0.00,,SKC,0.00,VWS V13.01,2013-03-20 08:38:00,
2013-03-20 04:43:00,26.4,22.2,29.84,WSW,248,0.0,0.0,84,0.00,,SKC,0.00,VWS V13.01,2013-03-20 08:43:00,
2013-03-20 04:48:00,26.4,22.2,29.85,WSW,248,0.0,0.0,84,0.00,,SKC,0.00,VWS V13.01,2013-03-20 08:48:00,
2013-03-20 04:53:00,26.4,22.2,29.85,WSW,248,0.0,0.0,84,0.00,,SKC,0.00,VWS V13.01,2013-03-20 08:53:00,
2013-03-20 04:58:00,26.2,22.0,29.85,WSW,248,0.0,0.0,84,0.00,,SKC,0.00,VWS V13.01,2013-03-20 08:58:00,
2013-03-20 05:03:00,26.2,22.0,29.85,WSW,248,0.0,0.0,84,0.00,,SKC,0.00,VWS V13.01,2013-03-20 09:03:00,
2013-03-20 05:08:00,26.0,21.8,29.85,WSW,248,0.0,0.0,84,0.00,,SKC,0.00,VWS V13.01,2013-03-20 09:08:00,
2013-03-20 05:13:00,25.8,21.6,29.85,WSW,248,0.0,0.0,84,0.00,,SKC,0.00,VWS V13.01,2013-03-20 09:13:00,
2013-03-20 05:18:00,25.7,21.5,29.85,WSW,248,0.0,0.0,84,0.00,,SKC,0.00,VWS V13.01,2013-03-20 09:18:00,
2013-03-20 05:23:00,25.5,21.1,29.85,WSW,248,0.0,0.0,83,0.00,,SKC,0.00,VWS V13.01,2013-03-20 09:23:00,
2013-03-20 05:28:00,25.3,20.9,29.85,WSW,248,0.0,0.0,83,0.00,,SKC,0.00,VWS V13.01,2013-03-20 09:28:00,
2013-03-20 05:33:00,25.3,20.9,29.85,WSW,248,0.0,0.0,83,0.00,,SKC,0.00,VWS V13.01,2013-03-20 09:33:00,
2013-03-20 05:38:00,24.9,20.5,29.85,WSW,248,0.0,0.0,83,0.00,,SKC,0.00,VWS V13.01,2013-03-20 09:38:00,
2013-03-20 05:43:00,24.9,20.5,29.85,SSE,158,0.0,0.0,83,0.00,,SKC,0.00,VWS V13.01,2013-03-20 09:43:00,
2013-03-20 05:48:00,24.8,20.4,29.86,SSE,158,0.0,0.0,83,0.00,,SKC,0.00,VWS V13.01,2013-03-20 09:48:00,
2013-03-20 05:53:00,24.6,20.2,29.86,SSE,158,0.0,0.0,83,0.00,,SKC,0.00,VWS V13.01,2013-03-20 09:53:00,
2013-03-20 05:58:00,24.4,20.0,29.86,SSE,158,0.0,0.0,83,0.00,,SKC,0.00,VWS V13.01,2013-03-20 09:58:00,
2013-03-20 06:03:00,24.4,20.0,29.85,SSE,158,0.0,0.0,83,0.00,,SKC,0.00,VWS V13.01,2013-03-20 10:03:00,
2013-03-20 06:08:00,24.0,19.6,29.85,SSE,158,0.0,0.0,83,0.00,,SKC,0.00,VWS V13.01,2013-03-20 10:08:00,
2013-03-20 06:13:00,23.7,19.3,29.85,SSE,158,0.0,0.0,83,0.00,,SKC,0.00,VWS V13.01,2013-03-20 10:13:00,
2013-03-20 06:18:00,23.1,18.7,29.85,SE,136,0.0,0.0,83,0.00,,SKC,0.00,VWS V13.01,2013-03-20 10:18:00,
2013-03-20 06:23:00,22.8,18.4,29.86,SE,136,0.0,0.0,83,0.00,,SKC,0.00,VWS V13.01,2013-03-20 10:23:00,
2013-03-20 06:28:00,22.8,18.4,29.86,SE,136,0.0,0.0,83,0.00,,SKC,0.00,VWS V13.01,2013-03-20 10:28:00,
2013-03-20 06:33:00,22.4,18.0,29.86,SE,136,0.0,0.0,83,0.00,,SKC,0.00,VWS V13.01,2013-03-20 10:33:00,
2013-03-20 06:38:00,22.1,17.7,29.86,SE,136,0.0,0.0,83,0.00,,SKC,0.00,VWS V13.01,2013-03-20 10:38:00,
2013-03-20 06:43:00,22.1,17.7,29.86,WNW,294,0.0,0.0,83,0.00,,SKC,0.00,VWS V13.01,2013-03-20 10:43:00,
2013-03-20 06:48:00,22.2,17.8,29.86,SSE,158,0.0,0.0,83,0.00,,SKC,0.00,VWS V13.01,2013-03-20 10:48:00,
2013-03-20 06:53:00,22.2,17.8,29.86,SSE,158,0.0,0.0,83,0.00,,SKC,0.00,VWS V13.01,2013-03-20 10:53:00,
2013-03-20 06:58:00,22.1,17.7,29.86,SSE,158,0.0,0.0,83,0.00,,SKC,0.00,VWS V13.01,2013-03-20 10:58:00,
2013-03-20 07:03:00,21.9,17.5,29.86,SSE,158,0.0,0.0,83,0.00,,SKC,0.00,VWS V13.01,2013-03-20 11:03:00,
2013-03-20 07:08:00,21.7,17.3,29.86,South,181,0.0,0.0,83,0.00,,SKC,0.00,VWS V13.01,2013-03-20 11:08:00,
2013-03-20 07:13:00,21.5,17.1,29.86,WSW,248,0.0,0.0,83,0.00,,SKC,0.00,VWS V13.01,2013-03-20 11:13:00,
2013-03-20 07:18:00,21.3,16.7,29.85,WSW,248,0.0,0.0,82,0.00,,SKC,0.00,VWS V13.01,2013-03-20 11:18:00,
2013-03-20 07:23:00,21.3,16.7,29.86,SSW,204,0.0,0.0,82,0.00,,SKC,0.00,VWS V13.01,2013-03-20 11:23:00,
2013-03-20 07:28:00,21.0,16.4,29.86,SSW,204,0.0,0.0,82,0.00,,SKC,0.00,VWS V13.01,2013-03-20 11:28:00,
2013-03-20 07:33:00,20.8,16.2,29.86,WSW,248,0.0,0.0,82,0.00,,SKC,0.00,VWS V13.01,2013-03-20 11:33:00,
2013-03-20 07:38:00,20.8,16.2,29.87,WSW,248,0.0,0.0,82,0.00,,SKC,0.00,VWS V13.01,2013-03-20 11:38:00,
2013-03-20 07:43:00,20.4,15.8,29.87,WSW,248,0.0,0.0,82,0.00,,SKC,0.00,VWS V13.01,2013-03-20 11:43:00,
2013-03-20 07:48:00,20.4,15.8,29.87,WSW,248,0.0,0.0,82,0.00,,SKC,0.00,VWS V13.01,2013-03-20 11:48:00,
2013-03-20 07:53:00,20.6,16.0,29.88,WSW,248,0.0,0.0,82,0.00,,SKC,0.00,VWS V13.01,2013-03-20 11:53:00,
2013-03-20 07:58:00,20.8,16.2,29.88,WSW,248,0.0,0.0,82,0.00,,SKC,0.00,VWS V13.01,2013-03-20 11:58:00,
2013-03-20 08:03:00,20.8,16.2,29.87,ESE,114,0.0,0.0,82,0.00,,SKC,0.00,VWS V13.01,2013-03-20 12:03:00,
2013-03-20 08:08:00,21.3,16.7,29.88,NNE,24,0.0,0.0,82,0.00,,SKC,0.00,VWS V13.01,2013-03-20 12:08:00,
2013-03-20 08:13:00,21.9,17.3,29.87,SSE,158,0.0,0.0,82,0.00,,SKC,0.00,VWS V13.01,2013-03-20 12:13:00,
2013-03-20 08:18:00,22.2,17.5,29.87,SSE,158,0.0,0.0,82,0.00,,SKC,0.00,VWS V13.01,2013-03-20 12:18:00,
2013-03-20 08:23:00,22.8,18.1,29.87,WSW,248,0.0,0.0,82,0.00,,SKC,0.00,VWS V13.01,2013-03-20 12:23:00,
2013-03-20 08:28:00,22.8,18.1,29.87,SSE,158,0.0,0.0,82,0.00,,SKC,0.00,VWS V13.01,2013-03-20 12:28:00,
2013-03-20 08:33:00,23.3,18.6,29.87,South,181,0.0,0.0,82,0.00,,SKC,0.00,VWS V13.01,2013-03-20 12:33:00,
2013-03-20 08:38:00,23.5,18.5,29.87,South,181,0.0,0.0,81,0.00,,SKC,0.00,VWS V13.01,2013-03-20 12:38:00,
2013-03-20 08:43:00,23.5,18.5,29.87,NE,46,0.0,0.0,81,0.00,,SKC,0.00,VWS V13.01,2013-03-20 12:43:00,
2013-03-20 08:48:00,23.7,18.7,29.86,ENE,68,0.0,0.0,81,0.00,,SKC,0.00,VWS V13.01,2013-03-20 12:48:00,
2013-03-20 08:53:00,23.9,18.9,29.87,ENE,68,0.0,0.0,81,0.00,,SKC,0.00,VWS V13.01,2013-03-20 12:53:00,
2013-03-20 08:58:00,24.2,19.2,29.87,ENE,68,0.0,0.0,81,0.00,,SKC,0.00,VWS V13.01,2013-03-20 12:58:00,
2013-03-20 09:03:00,24.9,19.9,29.86,ENE,68,0.0,0.0,81,0.00,,SKC,0.00,VWS V13.01,2013-03-20 13:03:00,
2013-03-20 09:09:00,25.3,20.3,29.86,ENE,68,0.0,0.0,81,0.00,,SKC,0.00,VWS V13.01,2013-03-20 13:09:00,
2013-03-20 09:14:00,25.8,20.8,29.87,ENE,68,0.0,0.0,81,0.00,,SKC,0.00,VWS V13.01,2013-03-20 13:14:00,
2013-03-20 09:19:00,26.6,21.6,29.87,East,91,0.0,0.0,81,0.00,,SKC,0.00,VWS V13.01,2013-03-20 13:19:00,
2013-03-20 09:24:00,27.1,22.1,29.87,ESE,114,0.0,0.0,81,0.00,,SKC,0.00,VWS V13.01,2013-03-20 13:24:00,
2013-03-20 09:29:00,27.5,22.1,29.87,ESE,114,0.0,0.0,80,0.00,,SKC,0.00,VWS V13.01,2013-03-20 13:29:00,
2013-03-20 09:34:00,28.0,22.6,29.87,NE,46,0.0,0.0,80,0.00,,SKC,0.00,VWS V13.01,2013-03-20 13:34:00,
2013-03-20 09:39:00,28.2,22.5,29.87,NE,46,0.0,0.0,79,0.00,,SKC,0.00,VWS V13.01,2013-03-20 13:39:00,
2013-03-20 09:44:00,28.5,22.8,29.87,NE,46,0.0,0.0,79,0.00,,SKC,0.00,VWS V13.01,2013-03-20 13:44:00,
2013-03-20 09:49:00,28.9,23.2,29.87,ESE,114,0.0,0.0,79,0.00,,SKC,0.00,VWS V13.01,2013-03-20 13:49:00,
2013-03-20 09:54:00,29.1,23.1,29.87,ENE,68,0.0,0.0,78,0.02,,SKC,0.02,VWS V13.01,2013-03-20 13:54:00,
2013-03-20 09:59:00,29.4,23.1,29.87,SSE,158,0.0,0.0,77,0.02,,SKC,0.02,VWS V13.01,2013-03-20 13:59:00,
2013-03-20 10:04:00,29.6,23.6,29.87,SE,136,0.0,0.0,78,0.02,,SKC,0.02,VWS V13.01,2013-03-20 14:04:00,
2013-03-20 10:09:00,30.0,23.7,29.86,ESE,114,0.0,0.0,77,0.02,,SKC,0.02,VWS V13.01,2013-03-20 14:09:00,
2013-03-20 10:14:00,30.0,23.7,29.87,East,91,0.0,0.0,77,0.02,,SKC,0.02,VWS V13.01,2013-03-20 14:14:00,
2013-03-20 10:19:00,30.3,24.0,29.86,ESE,114,0.0,0.0,77,0.02,,SKC,0.02,VWS V13.01,2013-03-20 14:19:00,
2013-03-20 10:24:00,30.5,24.2,29.86,SSE,158,0.0,0.0,77,0.02,,SKC,0.02,VWS V13.01,2013-03-20 14:24:00,
2013-03-20 10:29:00,30.7,24.0,29.86,NE,46,0.0,0.0,76,0.02,,SKC,0.02,VWS V13.01,2013-03-20 14:29:00,
2013-03-20 10:34:00,31.2,24.5,29.86,NE,46,0.0,0.0,76,0.02,,SKC,0.02,VWS V13.01,2013-03-20 14:34:00,
2013-03-20 10:39:00,31.6,24.9,29.86,East,91,0.0,0.0,76,0.04,,SKC,0.04,VWS V13.01,2013-03-20 14:39:00,
2013-03-20 10:44:00,32.5,25.5,29.86,SE,136,0.0,0.0,75,0.04,,SKC,0.04,VWS V13.01,2013-03-20 14:44:00,
2013-03-20 10:49:00,33.0,25.6,29.86,WNW,294,0.0,0.0,74,0.04,,SKC,0.04,VWS V13.01,2013-03-20 14:49:00,
2013-03-20 10:54:00,33.6,26.2,29.86,East,91,0.0,0.0,74,0.02,,SKC,0.04,VWS V13.01,2013-03-20 14:54:00,
2013-03-20 10:59:00,34.5,26.8,29.86,NE,46,0.0,0.0,73,0.02,,SKC,0.04,VWS V13.01,2013-03-20 14:59:00,
2013-03-20 11:04:00,34.8,26.7,29.86,SE,136,0.0,0.0,72,0.04,,SKC,0.06,VWS V13.01,2013-03-20 15:04:00,
2013-03-20 11:09:00,35.0,26.6,29.86,South,181,0.0,0.0,71,0.04,,SKC,0.06,VWS V13.01,2013-03-20 15:09:00,
2013-03-20 11:14:00,35.6,26.8,29.86,SSE,158,0.0,0.0,70,0.04,,SKC,0.06,VWS V13.01,2013-03-20 15:14:00,
2013-03-20 11:19:00,35.9,27.1,29.86,SSE,158,0.0,0.0,70,0.04,,SKC,0.06,VWS V13.01,2013-03-20 15:19:00,
2013-03-20 11:24:00,36.3,27.5,29.86,South,181,0.0,0.0,70,0.04,,SKC,0.06,VWS V13.01,2013-03-20 15:24:00,
2013-03-20 11:29:00,37.0,27.8,29.86,East,91,0.0,0.0,69,0.04,,SKC,0.06,VWS V13.01,2013-03-20 15:29:00,
2013-03-20 11:34:00,37.2,27.6,29.85,SSW,204,0.0,0.0,68,0.02,,SKC,0.06,VWS V13.01,2013-03-20 15:34:00,
2013-03-20 11:39:00,37.5,27.5,29.85,South,181,0.0,0.0,67,0.02,,SKC,0.06,VWS V13.01,2013-03-20 15:39:00,
2013-03-20 11:44:00,37.7,27.4,29.85,South,181,0.8,0.8,66,0.04,,SKC,0.08,VWS V13.01,2013-03-20 15:44:00,
2013-03-20 11:49:00,37.9,27.6,29.85,SSE,158,1.1,1.1,66,0.04,,SKC,0.08,VWS V13.01,2013-03-20 15:49:00,
2013-03-20 11:54:00,38.1,27.8,29.85,SSE,158,0.0,0.0,66,0.04,,SKC,0.08,VWS V13.01,2013-03-20 15:54:00,
2013-03-20 11:59:00,38.1,27.4,29.85,SSE,158,0.0,0.0,65,0.04,,SKC,0.08,VWS V13.01,2013-03-20 15:59:00,
2013-03-20 12:04:00,37.9,27.2,29.85,NNE,24,0.0,0.0,65,0.02,,SKC,0.08,VWS V13.01,2013-03-20 16:04:00,
2013-03-20 12:09:00,37.7,26.6,29.85,NE,46,3.1,3.1,64,0.02,,SKC,0.08,VWS V13.01,2013-03-20 16:09:00,
2013-03-20 12:14:00,37.5,26.5,29.85,South,181,0.0,0.0,64,0.02,,SKC,0.08,VWS V13.01,2013-03-20 16:14:00,
2013-03-20 12:19:00,37.9,26.8,29.85,ESE,114,2.4,2.4,64,0.02,,SKC,0.08,VWS V13.01,2013-03-20 16:19:00,
2013-03-20 12:24:00,38.1,27.0,29.85,NNW,338,0.8,0.8,64,0.02,,SKC,0.08,VWS V13.01,2013-03-20 16:24:00,
2013-03-20 12:29:00,38.4,26.9,29.84,WSW,248,0.0,0.0,63,0.04,,SKC,0.10,VWS V13.01,2013-03-20 16:29:00,
2013-03-20 12:34:00,38.8,27.3,29.84,South,181,0.0,0.0,63,0.04,,SKC,0.10,VWS V13.01,2013-03-20 16:34:00,
2013-03-20 12:39:00,39.0,27.1,29.84,SW,226,0.0,0.0,62,0.04,,SKC,0.10,VWS V13.01,2013-03-20 16:39:00,
2013-03-20 12:44:00,39.0,27.5,29.84,SSE,158,0.0,0.0,63,0.02,,SKC,0.10,VWS V13.01,2013-03-20 16:44:00,
2013-03-20 12:49:00,39.2,27.3,29.84,NNW,338,0.0,0.0,62,0.02,,SKC,0.10,VWS V13.01,2013-03-20 16:49:00,
2013-03-20 12:55:00,39.3,27.4,29.84,SSE,158,1.7,1.7,62,0.04,,SKC,0.12,VWS V13.01,2013-03-20 16:55:00,
2013-03-20 13:00:00,39.5,27.6,29.84,South,181,0.0,0.0,62,0.04,,SKC,0.12,VWS V13.01,2013-03-20 17:00:00,
2013-03-20 13:05:00,39.7,27.8,29.84,SSE,158,0.0,0.0,62,0.04,,SKC,0.12,VWS V13.01,2013-03-20 17:05:00,
2013-03-20 13:10:00,39.7,27.4,29.84,NNE,24,0.0,0.0,61,0.04,,SKC,0.12,VWS V13.01,2013-03-20 17:10:00,
2013-03-20 13:15:00,39.7,27.8,29.84,South,181,0.0,0.0,62,0.04,,SKC,0.12,VWS V13.01,2013-03-20 17:15:00,
2013-03-20 13:20:00,39.7,27.4,29.84,South,181,0.0,0.0,61,0.04,,SKC,0.12,VWS V13.01,2013-03-20 17:20:00,
2013-03-20 13:25:00,39.3,27.0,29.84,ESE,114,0.0,0.0,61,0.02,,SKC,0.12,VWS V13.01,2013-03-20 17:25:00,
2013-03-20 13:30:00,39.3,27.4,29.84,South,181,0.0,0.0,62,0.02,,SKC,0.12,VWS V13.01,2013-03-20 17:30:00,
2013-03-20 13:35:00,39.0,27.5,29.84,South,181,0.0,4.0,63,0.02,,SKC,0.12,VWS V13.01,2013-03-20 17:35:00,
2013-03-20 13:40:00,38.8,27.7,29.84,South,181,0.0,0.0,64,0.04,,SKC,0.14,VWS V13.01,2013-03-20 17:40:00,
2013-03-20 13:45:00,38.8,27.7,29.84,South,181,2.0,2.0,64,0.04,,SKC,0.14,VWS V13.01,2013-03-20 17:45:00,
2013-03-20 13:50:00,38.8,28.1,29.83,SSW,204,0.0,0.0,65,0.04,,SKC,0.14,VWS V13.01,2013-03-20 17:50:00,
2013-03-20 13:55:00,38.4,27.7,29.83,SSE,158,3.5,3.5,65,0.02,,SKC,0.14,VWS V13.01,2013-03-20 17:55:00,
2013-03-20 14:00:00,38.1,27.4,29.83,South,181,0.0,0.0,65,0.02,,SKC,0.00,VWS V13.01,2013-03-20 18:00:00,
2013-03-20 14:05:00,37.9,27.6,29.83,South,181,0.0,0.0,66,0.02,,SKC,0.14,VWS V13.01,2013-03-20 18:05:00,
2013-03-20 14:10:00,37.7,27.4,29.83,SSE,158,5.8,5.8,66,0.02,,SKC,0.14,VWS V13.01,2013-03-20 18:10:00,
2013-03-20 14:15:00,37.4,27.1,29.83,SE,136,2.9,2.9,66,0.02,,SKC,0.14,VWS V13.01,2013-03-20 18:15:00,
2013-03-20 14:20:00,37.2,27.3,29.82,SSW,204,0.0,0.0,67,0.02,,SKC,0.14,VWS V13.01,2013-03-20 18:20:00,
2013-03-20 14:25:00,37.2,27.3,29.82,South,181,2.2,2.2,67,0.02,,SKC,0.14,VWS V13.01,2013-03-20 18:25:00,
2013-03-20 14:30:00,37.4,27.8,29.82,South,181,0.0,0.0,68,0.02,,SKC,0.14,VWS V13.01,2013-03-20 18:30:00,
2013-03-20 14:35:00,37.4,27.8,29.82,South,181,0.0,0.0,68,0.00,,SKC,0.14,VWS V13.01,2013-03-20 18:35:00,
2013-03-20 14:40:00,37.5,27.9,29.82,SSE,158,0.0,0.0,68,0.00,,SKC,0.14,VWS V13.01,2013-03-20 18:40:00,
2013-03-20 14:45:00,37.7,28.1,29.82,SSE,158,0.0,0.0,68,0.02,,SKC,0.16,VWS V13.01,2013-03-20 18:45:00,
2013-03-20 14:50:00,37.9,27.9,29.82,SSE,158,0.0,0.0,67,0.02,,SKC,0.16,VWS V13.01,2013-03-20 18:50:00,
2013-03-20 14:55:00,37.9,28.3,29.81,SSE,158,0.0,0.0,68,0.02,,SKC,0.16,VWS V13.01,2013-03-20 18:55:00,
2013-03-20 15:00:00,38.1,28.1,29.81,SE,136,0.0,0.0,67,0.02,,SKC,0.16,VWS V13.01,2013-03-20 19:00:00,
2013-03-20 15:05:00,38.8,28.8,29.81,South,181,1.7,1.7,67,0.02,,SKC,0.16,VWS V13.01,2013-03-20 19:05:00,
2013-03-20 15:10:00,39.0,29.0,29.81,SSE,158,5.1,5.1,67,0.02,,SKC,0.16,VWS V13.01,2013-03-20 19:10:00,
2013-03-20 15:15:00,39.0,29.0,29.81,NNE,24,1.3,1.3,67,0.02,,SKC,0.16,VWS V13.01,2013-03-20 19:15:00,
2013-03-20 15:20:00,38.8,29.2,29.81,South,181,0.0,0.8,68,0.02,,SKC,0.16,VWS V13.01,2013-03-20 19:20:00,
2013-03-20 15:25:00,39.0,29.4,29.81,NNW,338,0.0,0.0,68,0.02,,SKC,0.16,VWS V13.01,2013-03-20 19:25:00,
2013-03-20 15:30:00,38.8,29.2,29.80,SW,226,0.0,0.0,68,0.02,,SKC,0.16,VWS V13.01,2013-03-20 19:30:00,
2013-03-20 15:35:00,38.4,28.8,29.80,SE,136,0.0,0.0,68,0.02,,SKC,0.16,VWS V13.01,2013-03-20 19:35:00,
2013-03-20 15:40:00,38.4,28.4,29.80,SW,226,0.0,0.0,67,0.00,,SKC,0.16,VWS V13.01,2013-03-20 19:40:00,
2013-03-20 15:45:00,38.4,28.4,29.80,SW,226,0.0,0.0,67,0.00,,SKC,0.16,VWS V13.01,2013-03-20 19:45:00,
2013-03-20 15:50:00,38.4,28.4,29.80,SSE,158,1.1,1.1,67,0.00,,SKC,0.16,VWS V13.01,2013-03-20 19:50:00,
2013-03-20 15:55:00,38.3,28.0,29.80,SSE,158,1.5,1.5,66,0.00,,SKC,0.16,VWS V13.01,2013-03-20 19:55:00,
2013-03-20 16:00:00,37.9,27.6,29.80,WSW,248,0.0,0.0,66,0.00,,SKC,0.00,VWS V13.01,2013-03-20 20:00:00,
2013-03-20 16:05:00,37.7,27.8,29.80,SSE,158,0.0,0.0,67,0.00,,SKC,0.16,VWS V13.01,2013-03-20 20:05:00,
2013-03-20 16:10:00,37.2,27.3,29.80,WNW,294,0.0,2.9,67,0.00,,SKC,0.16,VWS V13.01,2013-03-20 20:10:00,
2013-03-20 16:15:00,36.8,27.2,29.81,NE,46,1.1,1.1,68,0.00,,SKC,0.16,VWS V13.01,2013-03-20 20:15:00,
2013-03-20 16:20:00,36.6,27.0,29.81,NNW,338,0.0,0.0,68,0.00,,SKC,0.16,VWS V13.01,2013-03-20 20:20:00,
2013-03-20 16:25:00,36.5,27.0,29.81,NW,316,0.0,0.0,68,0.00,,SKC,0.16,VWS V13.01,2013-03-20 20:25:00,
2013-03-20 16:30:00,36.1,26.6,29.82,NW,316,2.0,2.0,68,0.00,,SKC,0.16,VWS V13.01,2013-03-20 20:30:00,
2013-03-20 16:35:00,36.1,26.9,29.81,East,91,0.0,0.0,69,0.00,,SKC,0.16,VWS V13.01,2013-03-20 20:35:00,
2013-03-20 16:40:00,36.5,27.3,29.81,ENE,68,0.0,0.0,69,0.00,,SKC,0.16,VWS V13.01,2013-03-20 20:40:00,
2013-03-20 16:45:00,37.0,27.8,29.82,South,181,0.0,0.0,69,0.00,,SKC,0.16,VWS V13.01,2013-03-20 20:45:00,
2013-03-20 16:50:00,37.2,28.0,29.82,ESE,114,1.7,1.7,69,0.00,,SKC,0.16,VWS V13.01,2013-03-20 20:50:00,
2013-03-20 16:55:00,37.2,27.6,29.82,NNE,24,0.0,0.0,68,0.00,,SKC,0.16,VWS V13.01,2013-03-20 20:55:00,
2013-03-20 17:00:00,37.4,27.8,29.82,SE,136,0.0,0.0,68,0.00,,SKC,0.16,VWS V13.01,2013-03-20 21:00:00,
2013-03-20 17:05:00,37.4,27.8,29.82,ESE,114,0.0,0.0,68,0.00,,SKC,0.16,VWS V13.01,2013-03-20 21:05:00,
2013-03-20 17:10:00,37.2,27.6,29.83,South,181,1.5,1.5,68,0.00,,SKC,0.16,VWS V13.01,2013-03-20 21:10:00,
2013-03-20 17:15:00,37.2,27.6,29.83,NE,46,0.8,0.8,68,0.00,,SKC,0.16,VWS V13.01,2013-03-20 21:15:00,
2013-03-20 17:20:00,36.8,27.2,29.83,SSE,158,0.0,0.0,68,0.00,,SKC,0.16,VWS V13.01,2013-03-20 21:20:00,
2013-03-20 17:25:00,37.0,27.4,29.83,North,1,0.0,0.0,68,0.00,,SKC,0.16,VWS V13.01,2013-03-20 21:25:00,
2013-03-20 17:30:00,37.0,27.4,29.83,NW,316,0.0,0.0,68,0.00,,SKC,0.16,VWS V13.01,2013-03-20 21:30:00,
2013-03-20 17:35:00,36.8,27.2,29.83,NW,316,0.0,0.0,68,0.00,,SKC,0.16,VWS V13.01,2013-03-20 21:35:00,
2013-03-20 17:40:00,36.6,27.0,29.83,NNW,338,0.0,0.0,68,0.00,,SKC,0.16,VWS V13.01,2013-03-20 21:40:00,
2013-03-20 17:45:00,36.6,27.0,29.83,NNW,338,0.0,0.0,68,0.00,,SKC,0.16,VWS V13.01,2013-03-20 21:45:00,
2013-03-20 17:50:00,36.5,27.0,29.83,NNE,24,0.0,0.0,68,0.00,,SKC,0.16,VWS V13.01,2013-03-20 21:50:00,
2013-03-20 17:55:00,36.5,26.6,29.83,NE,46,0.0,0.0,67,0.00,,SKC,0.16,VWS V13.01,2013-03-20 21:55:00,
2013-03-20 18:00:00,36.3,26.4,29.84,East,91,0.0,0.0,67,0.00,,SKC,0.16,VWS V13.01,2013-03-20 22:00:00,
2013-03-20 18:05:00,36.3,26.4,29.84,ENE,68,0.0,0.0,67,0.00,,SKC,0.16,VWS V13.01,2013-03-20 22:05:00,
2013-03-20 18:10:00,35.9,25.7,29.84,North,1,0.0,0.0,66,0.00,,SKC,0.16,VWS V13.01,2013-03-20 22:10:00,
2013-03-20 18:15:00,35.7,25.5,29.84,NNE,24,0.0,0.0,66,0.00,,SKC,0.16,VWS V13.01,2013-03-20 22:15:00,
2013-03-20 18:20:00,35.2,25.0,29.84,NE,46,2.2,2.2,66,0.00,,SKC,0.16,VWS V13.01,2013-03-20 22:20:00,
2013-03-20 18:25:00,34.7,24.5,29.84,South,181,0.0,0.0,66,0.00,,SKC,0.16,VWS V13.01,2013-03-20 22:25:00,
2013-03-20 18:30:00,34.3,24.1,29.85,NE,46,0.0,0.0,66,0.00,,SKC,0.16,VWS V13.01,2013-03-20 22:30:00,
2013-03-20 18:35:00,33.9,23.8,29.85,NNE,24,0.0,0.0,66,0.00,,SKC,0.16,VWS V13.01,2013-03-20 22:35:00,
2013-03-20 18:40:00,33.6,23.5,29.85,East,91,0.0,0.0,66,0.00,,SKC,0.16,VWS V13.01,2013-03-20 22:40:00,
2013-03-20 18:45:00,33.4,23.3,29.85,NNW,338,0.2,0.2,66,0.00,,SKC,0.16,VWS V13.01,2013-03-20 22:45:00,
2013-03-20 18:50:00,32.9,22.8,29.85,NE,46,0.0,0.0,66,0.00,,SKC,0.16,VWS V13.01,2013-03-20 22:50:00,
2013-03-20 18:55:00,32.5,22.4,29.85,North,1,0.0,0.0,66,0.00,,SKC,0.16,VWS V13.01,2013-03-20 22:55:00,
2013-03-20 19:00:00,32.1,22.0,29.85,South,181,6.2,6.2,66,0.00,,SKC,0.16,VWS V13.01,2013-03-20 23:00:00,
2013-03-20 19:05:00,31.8,21.8,29.85,North,1,1.5,1.5,66,0.00,,SKC,0.16,VWS V13.01,2013-03-20 23:05:00,
2013-03-20 19:10:00,31.6,21.6,29.85,NNE,24,1.7,1.7,66,0.00,,SKC,0.16,VWS V13.01,2013-03-20 23:10:00,
2013-03-20 19:15:00,31.2,21.2,29.86,NE,46,0.0,0.0,66,0.00,,SKC,0.16,VWS V13.01,2013-03-20 23:15:00,
2013-03-20 19:20:00,30.9,20.9,29.86,NNE,24,0.0,0.0,66,0.00,,SKC,0.16,VWS V13.01,2013-03-20 23:20:00,
2013-03-20 19:25:00,30.7,20.7,29.86,ENE,68,0.0,0.0,66,0.00,,SKC,0.16,VWS V13.01,2013-03-20 23:25:00,
2013-03-20 19:30:00,30.3,20.3,29.86,ENE,68,0.0,0.0,66,0.00,,SKC,0.16,VWS V13.01,2013-03-20 23:30:00,
2013-03-20 19:35:00,30.0,20.0,29.86,SE,136,0.0,0.0,66,0.00,,SKC,0.16,VWS V13.01,2013-03-20 23:35:00,
2013-03-20 19:40:00,29.8,19.8,29.86,SSE,158,0.0,0.0,66,0.00,,SKC,0.16,VWS V13.01,2013-03-20 23:40:00,
2013-03-20 19:45:00,29.6,20.0,29.86,SSE,158,2.0,2.0,67,0.00,,SKC,0.16,VWS V13.01,2013-03-20 23:45:00,
2013-03-20 19:50:00,29.3,19.7,29.86,SSE,158,0.0,0.0,67,0.00,,SKC,0.16,VWS V13.01,2013-03-20 23:50:00,
2013-03-20 19:55:00,29.1,19.5,29.87,SSW,204,0.0,0.0,67,0.00,,SKC,0.16,VWS V13.01,2013-03-20 23:55:00,
2013-03-20 20:00:00,28.9,19.3,29.87,SSW,204,0.0,0.0,67,0.00,,SKC,0.16,VWS V13.01,2013-03-21 00:00:00,
2013-03-20 20:05:00,28.7,18.8,29.87,South,181,0.0,0.0,66,0.00,,SKC,0.16,VWS V13.01,2013-03-21 00:05:00,
2013-03-20 20:10:00,28.5,18.6,29.87,SSE,158,0.0,0.0,66,0.00,,SKC,0.16,VWS V13.01,2013-03-21 00:10:00,
2013-03-20 20:15:00,28.4,18.5,29.88,South,181,0.0,0.0,66,0.00,,SKC,0.16,VWS V13.01,2013-03-21 00:15:00,
2013-03-20 20:20:00,28.2,18.3,29.88,South,181,0.0,0.0,66,0.00,,SKC,0.16,VWS V13.01,2013-03-21 00:20:00,
2013-03-20 20:25:00,28.0,18.1,29.88,South,181,0.0,0.0,66,0.00,,SKC,0.16,VWS V13.01,2013-03-21 00:25:00,
2013-03-20 20:31:00,28.0,18.1,29.88,South,181,0.0,0.0,66,0.00,,SKC,0.16,VWS V13.01,2013-03-21 00:31:00,
2013-03-20 20:36:00,28.0,18.1,29.88,South,181,0.0,0.0,66,0.00,,SKC,0.16,VWS V13.01,2013-03-21 00:36:00,
2013-03-20 20:41:00,28.0,18.1,29.88,South,181,0.0,0.0,66,0.00,,SKC,0.16,VWS V13.01,2013-03-21 00:41:00,
2013-03-20 20:46:00,27.6,17.7,29.88,South,181,0.0,0.0,66,0.00,,SKC,0.16,VWS V13.01,2013-03-21 00:46:00,
2013-03-20 20:51:00,27.3,17.5,29.88,South,181,0.0,0.0,66,0.00,,SKC,0.16,VWS V13.01,2013-03-21 00:51:00,
2013-03-20 20:56:00,27.1,17.3,29.88,South,181,1.3,1.3,66,0.00,,SKC,0.16,VWS V13.01,2013-03-21 00:56:00,
2013-03-20 21:01:00,27.1,17.3,29.88,SSE,158,0.0,0.0,66,0.00,,SKC,0.16,VWS V13.01,2013-03-21 01:01:00,
2013-03-20 21:06:00,26.9,17.1,29.87,SSW,204,0.0,0.0,66,0.00,,SKC,0.16,VWS V13.01,2013-03-21 01:06:00,
2013-03-20 21:11:00,27.1,17.3,29.87,SSW,204,0.0,0.0,66,0.00,,SKC,0.16,VWS V13.01,2013-03-21 01:11:00,
2013-03-20 21:16:00,27.1,17.3,29.87,West,271,0.0,0.0,66,0.00,,SKC,0.16,VWS V13.01,2013-03-21 01:16:00,
2013-03-20 21:21:00,27.1,16.9,29.87,South,181,0.0,0.0,65,0.00,,SKC,0.16,VWS V13.01,2013-03-21 01:21:00,
2013-03-20 21:26:00,27.1,16.9,29.88,SE,136,0.0,0.0,65,0.00,,SKC,0.16,VWS V13.01,2013-03-21 01:26:00,
2013-03-20 21:31:00,27.1,16.9,29.87,South,181,0.0,0.0,65,0.00,,SKC,0.16,VWS V13.01,2013-03-21 01:31:00,
2013-03-20 21:36:00,27.1,16.9,29.87,SSE,158,0.0,0.0,65,0.00,,SKC,0.16,VWS V13.01,2013-03-21 01:36:00,
2013-03-20 21:41:00,27.1,16.9,29.87,SE,136,1.7,1.7,65,0.00,,SKC,0.16,VWS V13.01,2013-03-21 01:41:00,
2013-03-20 21:46:00,26.9,16.7,29.87,SE,136,0.0,0.0,65,0.00,,SKC,0.16,VWS V13.01,2013-03-21 01:46:00,
2013-03-20 21:51:00,26.7,16.5,29.87,SSE,158,0.0,0.0,65,0.00,,SKC,0.16,VWS V13.01,2013-03-21 01:51:00,
2013-03-20 21:56:00,26.6,16.4,29.87,NNE,24,0.0,0.0,65,0.00,,SKC,0.16,VWS V13.01,2013-03-21 01:56:00,
2013-03-20 22:01:00,26.4,16.2,29.87,NNE,24,0.0,0.0,65,0.00,,SKC,0.16,VWS V13.01,2013-03-21 02:01:00,
2013-03-20 22:07:00,26.4,16.6,29.87,NNW,338,0.0,0.0,66,0.00,,SKC,0.16,VWS V13.01,2013-03-21 02:07:00,
2013-03-20 22:12:00,26.2,16.4,29.87,NE,46,0.0,0.0,66,0.00,,SKC,0.16,VWS V13.01,2013-03-21 02:12:00,
2013-03-20 22:17:00,26.2,16.4,29.87,WNW,294,0.0,0.0,66,0.00,,SKC,0.16,VWS V13.01,2013-03-21 02:17:00,
2013-03-20 22:22:00,25.8,16.0,29.88,SW,226,0.0,0.0,66,0.00,,SKC,0.16,VWS V13.01,2013-03-21 02:22:00,
2013-03-20 22:27:00,25.7,15.9,29.88,SW,226,0.0,0.0,66,0.00,,SKC,0.16,VWS V13.01,2013-03-21 02:27:00,
2013-03-20 22:32:00,25.5,15.7,29.88,SW,226,0.0,0.0,66,0.00,,SKC,0.16,VWS V13.01,2013-03-21 02:32:00,
2013-03-20 22:37:00,25.5,15.7,29.87,SSW,204,0.0,0.0,66,0.00,,SKC,0.16,VWS V13.01,2013-03-21 02:37:00,
2013-03-20 22:42:00,25.5,15.7,29.87,SW,226,0.0,0.0,66,0.00,,SKC,0.16,VWS V13.01,2013-03-21 02:42:00,
2013-03-20 22:47:00,25.5,15.7,29.87,ESE,114,0.0,0.0,66,0.00,,SKC,0.16,VWS V13.01,2013-03-21 02:47:00,
2013-03-20 22:52:00,25.5,15.7,29.87,South,181,0.0,1.3,66,0.00,,SKC,0.16,VWS V13.01,2013-03-21 02:52:00,
2013-03-20 22:57:00,25.5,15.7,29.87,SSW,204,0.0,0.0,66,0.00,,SKC,0.16,VWS V13.01,2013-03-21 02:57:00,
2013-03-20 23:02:00,25.5,15.7,29.87,South,181,0.0,0.0,66,0.00,,SKC,0.16,VWS V13.01,2013-03-21 03:02:00,
2013-03-20 23:07:00,25.5,15.7,29.87,SSE,158,0.0,0.0,66,0.00,,SKC,0.16,VWS V13.01,2013-03-21 03:07:00,
2013-03-20 23:12:00,25.5,15.7,29.87,SSE,158,0.0,0.0,66,0.00,,SKC,0.16,VWS V13.01,2013-03-21 03:12:00,
2013-03-20 23:17:00,25.3,15.6,29.87,South,181,0.0,0.0,66,0.00,,SKC,0.16,VWS V13.01,2013-03-21 03:17:00,
2013-03-20 23:22:00,25.1,15.4,29.88,South,181,0.0,0.0,66,0.00,,SKC,0.16,VWS V13.01,2013-03-21 03:22:00,
2013-03-20 23:27:00,25.1,15.4,29.88,SSW,204,0.0,0.0,66,0.00,,SKC,0.16,VWS V13.01,2013-03-21 03:27:00,
2013-03-20 23:32:00,24.9,15.2,29.87,SSW,204,0.0,0.0,66,0.00,,SKC,0.16,VWS V13.01,2013-03-21 03:32:00,
2013-03-20 23:37:00,24.6,14.9,29.87,SSW,204,0.0,0.0,66,0.00,,SKC,0.16,VWS V13.01,2013-03-21 03:37:00,
2013-03-20 23:42:00,24.6,14.9,29.88,SSW,204,0.0,0.0,66,0.00,,SKC,0.16,VWS V13.01,2013-03-21 03:42:00,
2013-03-20 23:47:00,24.4,14.7,29.87,SSW,204,0.0,0.0,66,0.00,,SKC,0.16,VWS V13.01,2013-03-21 03:47:00,
2013-03-20 23:52:00,24.2,14.5,29.88,SW,226,0.0,0.0,66,0.00,,SKC,0.16,VWS V13.01,2013-03-21 03:52:00,
2013-03-20 23:57:00,24.2,14.5,29.88,SSW,204,0.0,0.0,66,0.00,,SKC,0.16,VWS V13.01,2013-03-21 03:57:00,